User: anonymous   Login
Location: Gro�sch�nbrunn
(49.5760°N, 11.8868°E)
Time: 17:31:08
(UTC+00:00)
Language:

Cosmos 2098 Rocket - Orbit

View from above orbital plane
View from above orbital plane
View from above satellite
View from above satellite

Ground track
Ground track

The orbit data is extracted from the following two-line orbital elements,

1 20775U 90078B   20334.40220956  .00002488  00000-0  11809-3 0  9999
2 20775  82.9271  90.5627 0572045  43.5991 320.8952 14.34995942529381
Epoch (UTC): 29 November 2020 09:39:10
Eccentricity: 0.0572045
inclination: 82.9271°
perigee height: 366 km
apogee height: 1184 km
right ascension of ascending node: 90.5627°
argument of perigee: 43.5991°
revolutions per day: 14.34995942
mean anomaly at epoch: 320.8952°
orbit number at epoch: 52938

The dashed part of the orbit path shows where the satellite is in the earth's shadow,  

DLR